CMP839 MROC-MPTO

Flight info

Callsign CMP839
Flight time 0h 53m
Altitude 39000
Route TEJAR3M LIO UA317 BUFEO DCT BITOR VALIS1
Aircraft B738/M-SDE2E3FGHIRWXY/LB1

Departure

Time 2026-04-28 04:05
Airport Juan Santamaría International Airport (MROC)

Arrival

Time 2026-04-28 04:58
Airport Tocumen International Airport (MPTO)
Time Latitude Longitude Altitude Speed Heading
2026-04-28 03:33 9.99750 -84.20349 3033 ft 0 kts 339°
2026-04-28 03:49 9.99747 -84.20348 3033 ft 2 kts 339°
2026-04-28 03:49 9.99732 -84.20341 3036 ft 2 kts 335°
2026-04-28 03:50 9.99717 -84.20334 3032 ft 2 kts 327°
2026-04-28 03:50 9.99704 -84.20323 3034 ft 2 kts 292°
2026-04-28 03:50 9.99704 -84.20308 3032 ft 1 kts 251°
2026-04-28 03:50 9.99705 -84.20305 3032 ft 0 kts 250°
2026-04-28 03:55 9.99704 -84.20308 3033 ft 1 kts 250°
2026-04-28 03:55 9.99698 -84.20323 3034 ft 4 kts 249°
2026-04-28 03:55 9.99686 -84.20354 3033 ft 6 kts 249°
2026-04-28 03:56 9.99669 -84.20399 3033 ft 8 kts 248°
2026-04-28 03:56 9.99648 -84.20455 3035 ft 9 kts 250°
2026-04-28 03:56 9.99623 -84.20522 3036 ft 11 kts 249°
2026-04-28 03:56 9.99594 -84.20599 3035 ft 12 kts 249°
2026-04-28 03:57 9.99562 -84.20685 3033 ft 14 kts 249°
2026-04-28 03:57 9.99526 -84.20780 3033 ft 15 kts 250°
2026-04-28 03:57 9.99487 -84.20884 3032 ft 17 kts 249°
2026-04-28 03:57 9.99438 -84.21017 3018 ft 21 kts 249°
2026-04-28 03:58 9.99377 -84.21178 3005 ft 27 kts 249°
2026-04-28 03:58 9.99316 -84.21340 2995 ft 18 kts 249°
2026-04-28 03:58 9.99266 -84.21476 2984 ft 23 kts 249°
2026-04-28 03:58 9.99205 -84.21638 2972 ft 27 kts 249°
2026-04-28 03:59 9.99144 -84.21798 2957 ft 20 kts 249°
2026-04-28 03:59 9.99094 -84.21938 2956 ft 22 kts 258°
2026-04-28 03:59 9.99103 -84.22083 2948 ft 14 kts 257°
2026-04-28 03:59 9.99056 -84.22182 2944 ft 17 kts 232°
2026-04-28 04:00 9.99008 -84.22200 2943 ft 0 kts 171°
2026-04-28 04:01 9.98998 -84.22198 2939 ft 4 kts 166°
2026-04-28 04:01 9.98959 -84.22186 2948 ft 7 kts 160°
2026-04-28 04:01 9.98919 -84.22170 2940 ft 2 kts 149°
2026-04-28 04:02 9.98916 -84.22159 2944 ft 2 kts 94°
2026-04-28 04:02 9.98918 -84.22148 2948 ft 2 kts 75°
2026-04-28 04:02 9.98921 -84.22138 2937 ft 1 kts 70°
2026-04-28 04:02 9.98922 -84.22137 2938 ft 0 kts 70°
2026-04-28 04:04 9.98927 -84.22123 2946 ft 11 kts 70°
2026-04-28 04:04 9.99042 -84.21814 2969 ft 82 kts 69°
2026-04-28 04:04 9.99323 -84.21064 3011 ft 143 kts 69°
2026-04-28 04:04 9.99719 -84.20012 3392 ft 166 kts 70°
2026-04-28 04:05 10.00114 -84.18899 4213 ft 171 kts 69°
2026-04-28 04:05 10.00541 -84.17787 5008 ft 173 kts 68°
2026-04-28 04:05 10.01022 -84.16568 5315 ft 202 kts 68°
2026-04-28 04:05 10.01561 -84.15183 5633 ft 219 kts 68°
2026-04-28 04:06 10.02121 -84.13725 6178 ft 223 kts 70°
2026-04-28 04:06 10.02231 -84.12156 6748 ft 230 kts 104°
2026-04-28 04:06 10.01401 -84.10698 7050 ft 258 kts 134°
2026-04-28 04:06 9.99935 -84.09510 7427 ft 278 kts 141°
2026-04-28 04:07 9.98380 -84.08280 8074 ft 286 kts 140°
2026-04-28 04:07 9.96809 -84.07026 8877 ft 288 kts 140°
2026-04-28 04:07 9.95222 -84.05756 9655 ft 292 kts 140°
2026-04-28 04:07 9.93608 -84.04463 10323 ft 300 kts 140°
2026-04-28 04:08 9.91903 -84.03095 10511 ft 325 kts 141°
2026-04-28 04:08 9.90088 -84.01643 10699 ft 346 kts 141°
2026-04-28 04:08 9.88163 -84.00113 11176 ft 355 kts 141°
2026-04-28 04:08 9.86211 -83.98562 11846 ft 358 kts 141°
2026-04-28 04:09 9.84265 -83.96960 12497 ft 361 kts 135°
2026-04-28 04:09 9.82848 -83.94866 13137 ft 363 kts 110°
2026-04-28 04:09 9.82299 -83.92379 13854 ft 364 kts 91°
2026-04-28 04:09 9.82461 -83.89803 14488 ft 366 kts 84°
2026-04-28 04:10 9.82699 -83.87215 15097 ft 370 kts 84°
2026-04-28 04:10 9.82929 -83.84599 15701 ft 374 kts 84°
2026-04-28 04:10 9.83145 -83.81956 16335 ft 378 kts 85°
2026-04-28 04:10 9.83354 -83.79290 16948 ft 381 kts 85°
2026-04-28 04:11 9.83560 -83.76597 17570 ft 384 kts 85°
2026-04-28 04:11 9.83752 -83.73884 18183 ft 388 kts 85°
2026-04-28 04:11 9.83936 -83.71180 18688 ft 392 kts 86°
2026-04-28 04:11 9.84125 -83.68404 19160 ft 396 kts 86°
2026-04-28 04:12 9.84318 -83.65601 19643 ft 400 kts 86°
2026-04-28 04:12 9.84513 -83.62774 20105 ft 404 kts 86°
2026-04-28 04:12 9.84728 -83.59916 20539 ft 409 kts 84°
2026-04-28 04:12 9.85167 -83.57052 20994 ft 413 kts 79°
2026-04-28 04:13 9.85760 -83.54191 21449 ft 417 kts 78°
2026-04-28 04:13 9.86403 -83.51311 21921 ft 420 kts 77°
2026-04-28 04:13 9.87047 -83.48411 22369 ft 423 kts 78°
2026-04-28 04:13 9.87679 -83.45482 22799 ft 427 kts 78°
2026-04-28 04:14 9.88298 -83.42523 23226 ft 430 kts 79°
2026-04-28 04:14 9.88909 -83.39537 23650 ft 434 kts 79°
2026-04-28 04:14 9.89517 -83.36526 23979 ft 437 kts 79°
2026-04-28 04:14 9.90118 -83.33535 24339 ft 439 kts 79°
2026-04-28 04:15 9.90729 -83.30488 24702 ft 442 kts 79°
2026-04-28 04:15 9.91344 -83.27424 25040 ft 445 kts 79°
2026-04-28 04:15 9.92587 -83.21227 25731 ft 450 kts 79°
2026-04-28 04:16 9.93214 -83.18099 26064 ft 453 kts 79°
2026-04-28 04:16 9.93845 -83.14955 26404 ft 455 kts 79°
2026-04-28 04:16 9.94477 -83.11805 26722 ft 458 kts 80°
2026-04-28 04:16 9.95107 -83.08660 27034 ft 461 kts 80°
2026-04-28 04:17 9.95745 -83.05466 27359 ft 463 kts 81°
2026-04-28 04:17 9.95996 -83.02219 27614 ft 463 kts 97°
2026-04-28 04:17 9.95278 -82.99054 27950 ft 460 kts 111°
2026-04-28 04:17 9.94220 -82.95987 28302 ft 461 kts 111°
2026-04-28 04:18 9.93175 -82.92893 28579 ft 464 kts 111°
2026-04-28 04:18 9.92144 -82.89782 28837 ft 467 kts 110°
2026-04-28 04:18 9.91121 -82.86642 29132 ft 469 kts 110°
2026-04-28 04:18 9.90102 -82.83487 29429 ft 471 kts 110°
2026-04-28 04:19 9.89083 -82.80317 29707 ft 473 kts 110°
2026-04-28 04:19 9.88062 -82.77142 29985 ft 475 kts 110°
2026-04-28 04:19 9.87034 -82.73945 30210 ft 477 kts 110°
2026-04-28 04:19 9.86000 -82.70738 30422 ft 479 kts 110°
2026-04-28 04:20 9.84961 -82.67514 30628 ft 482 kts 110°
2026-04-28 04:20 9.83917 -82.64281 30822 ft 484 kts 110°
2026-04-28 04:20 9.82881 -82.61071 31021 ft 486 kts 110°
2026-04-28 04:20 9.81827 -82.57808 31252 ft 487 kts 110°
2026-04-28 04:21 9.80755 -82.54549 31552 ft 486 kts 111°
2026-04-28 04:21 9.79647 -82.51315 31862 ft 485 kts 112°
2026-04-28 04:21 9.78517 -82.48081 32149 ft 485 kts 112°
2026-04-28 04:21 9.77399 -82.44898 32418 ft 485 kts 112°
2026-04-28 04:22 9.76266 -82.41667 32720 ft 485 kts 112°
2026-04-28 04:22 9.75138 -82.38441 33030 ft 485 kts 112°
2026-04-28 04:22 9.74013 -82.35211 33325 ft 485 kts 112°
2026-04-28 04:22 9.72893 -82.31987 33630 ft 485 kts 112°
2026-04-28 04:23 9.71784 -82.28790 33945 ft 485 kts 112°
2026-04-28 04:23 9.70664 -82.25562 34208 ft 485 kts 112°
2026-04-28 04:23 9.69546 -82.22340 34484 ft 484 kts 112°
2026-04-28 04:23 9.68428 -82.19119 34812 ft 482 kts 112°
2026-04-28 04:24 9.67317 -82.15918 35121 ft 481 kts 112°
2026-04-28 04:24 9.66207 -82.12726 35395 ft 481 kts 112°
2026-04-28 04:24 9.65093 -82.09519 35656 ft 480 kts 112°
2026-04-28 04:24 9.63984 -82.06333 35943 ft 479 kts 112°
2026-04-28 04:25 9.62877 -82.03151 36246 ft 478 kts 112°
2026-04-28 04:25 9.61774 -81.99979 36510 ft 477 kts 112°
2026-04-28 04:25 9.60683 -81.96847 36760 ft 477 kts 112°
2026-04-28 04:25 9.59578 -81.93675 37032 ft 476 kts 112°
2026-04-28 04:26 9.58475 -81.90508 37329 ft 475 kts 112°
2026-04-28 04:26 9.57377 -81.87356 37593 ft 474 kts 112°
2026-04-28 04:26 9.56276 -81.84197 37831 ft 474 kts 112°
2026-04-28 04:26 9.55177 -81.81045 38084 ft 473 kts 112°
2026-04-28 04:27 9.54080 -81.77900 38362 ft 472 kts 112°
2026-04-28 04:27 9.52990 -81.74775 38603 ft 471 kts 112°
2026-04-28 04:27 9.51893 -81.71633 38797 ft 471 kts 112°
2026-04-28 04:27 9.50802 -81.68508 38965 ft 471 kts 112°
2026-04-28 04:28 9.49705 -81.65370 38970 ft 474 kts 112°
2026-04-28 04:28 9.47518 -81.59110 38977 ft 472 kts 112°
2026-04-28 04:29 9.45334 -81.52860 38978 ft 468 kts 112°
2026-04-28 04:29 9.43168 -81.46667 38980 ft 465 kts 112°
2026-04-28 04:30 9.41010 -81.40504 38981 ft 464 kts 112°
2026-04-28 04:30 9.38854 -81.34350 38988 ft 464 kts 112°
2026-04-28 04:31 9.36693 -81.28185 38984 ft 465 kts 112°
2026-04-28 04:31 9.34524 -81.22000 38988 ft 467 kts 112°
2026-04-28 04:32 9.32343 -81.15785 38988 ft 469 kts 112°
2026-04-28 04:32 9.30160 -81.09569 38984 ft 472 kts 112°
2026-04-28 04:33 9.27958 -81.03297 38982 ft 474 kts 112°
2026-04-28 04:33 9.26849 -81.00143 38773 ft 478 kts 112°
2026-04-28 04:33 9.25742 -80.96951 38106 ft 480 kts 111°
2026-04-28 04:33 9.24659 -80.93761 37495 ft 478 kts 111°
2026-04-28 04:34 9.23586 -80.90573 36854 ft 477 kts 111°
2026-04-28 04:34 9.22518 -80.87397 36235 ft 476 kts 111°
2026-04-28 04:34 9.21450 -80.84230 35572 ft 475 kts 111°
2026-04-28 04:34 9.20378 -80.81058 34838 ft 477 kts 111°
2026-04-28 04:35 9.19298 -80.77872 34101 ft 479 kts 111°
2026-04-28 04:35 9.18213 -80.74673 33263 ft 481 kts 111°
2026-04-28 04:35 9.17128 -80.71476 32461 ft 481 kts 111°
2026-04-28 04:35 9.16040 -80.68274 31691 ft 481 kts 111°
2026-04-28 04:36 9.14959 -80.65088 31157 ft 475 kts 111°
2026-04-28 04:36 9.13904 -80.61978 30598 ft 471 kts 111°
2026-04-28 04:36 9.12843 -80.58857 30044 ft 466 kts 111°
2026-04-28 04:36 9.11793 -80.55766 29376 ft 462 kts 111°
2026-04-28 04:37 9.10753 -80.52708 28785 ft 457 kts 111°
2026-04-28 04:37 9.09735 -80.49715 28613 ft 442 kts 111°
2026-04-28 04:37 9.09067 -80.47747 28459 ft 434 kts 111°
2026-04-28 04:37 9.08099 -80.44900 28272 ft 422 kts 111°
2026-04-28 04:38 9.07158 -80.42138 28096 ft 410 kts 111°
2026-04-28 04:38 9.06244 -80.39442 27915 ft 399 kts 110°
2026-04-28 04:38 9.05527 -80.36765 27390 ft 401 kts 104°
2026-04-28 04:38 9.04998 -80.33991 26911 ft 400 kts 102°
2026-04-28 04:39 9.04534 -80.31210 26399 ft 400 kts 101°
2026-04-28 04:39 9.04076 -80.28440 25895 ft 399 kts 101°
2026-04-28 04:39 9.03601 -80.25673 25365 ft 400 kts 101°
2026-04-28 04:39 9.03107 -80.22906 24848 ft 399 kts 101°
2026-04-28 04:40 9.02599 -80.20139 24316 ft 400 kts 101°
2026-04-28 04:40 9.02083 -80.17376 23818 ft 400 kts 101°
2026-04-28 04:40 9.01564 -80.14613 23247 ft 400 kts 101°
2026-04-28 04:40 9.01043 -80.11853 22692 ft 398 kts 101°
2026-04-28 04:41 9.00533 -80.09147 22168 ft 396 kts 101°
2026-04-28 04:41 9.00017 -80.06418 21653 ft 393 kts 101°
2026-04-28 04:41 8.99506 -80.03706 21145 ft 391 kts 101°
2026-04-28 04:41 8.98998 -80.01017 20647 ft 388 kts 100°
2026-04-28 04:42 8.98494 -79.98342 20150 ft 386 kts 100°
2026-04-28 04:42 8.97991 -79.95680 19643 ft 384 kts 100°
2026-04-28 04:42 8.97490 -79.93029 19149 ft 383 kts 100°
2026-04-28 04:42 8.97009 -79.90387 18641 ft 381 kts 96°
2026-04-28 04:43 8.97133 -79.87734 18137 ft 378 kts 75°
2026-04-28 04:43 8.98126 -79.85294 17588 ft 375 kts 57°
2026-04-28 04:43 8.99634 -79.83163 17130 ft 370 kts 53°
2026-04-28 04:43 9.01159 -79.81074 16631 ft 368 kts 53°
2026-04-28 04:44 9.02666 -79.78996 16153 ft 365 kts 53°
2026-04-28 04:44 9.04155 -79.76925 15687 ft 362 kts 54°
2026-04-28 04:44 9.05610 -79.74888 15227 ft 350 kts 54°
2026-04-28 04:44 9.06995 -79.72941 14812 ft 340 kts 54°
2026-04-28 04:45 9.08221 -79.71216 14437 ft 331 kts 54°
2026-04-28 04:45 9.09554 -79.69340 14007 ft 323 kts 54°
2026-04-28 04:45 9.10849 -79.67516 13579 ft 316 kts 54°
2026-04-28 04:45 9.12121 -79.65726 13151 ft 311 kts 54°
2026-04-28 04:46 9.13390 -79.63939 12681 ft 314 kts 54°
2026-04-28 04:46 9.14666 -79.62142 12198 ft 316 kts 54°
2026-04-28 04:46 9.15956 -79.60326 11726 ft 318 kts 54°
2026-04-28 04:46 9.17218 -79.58548 11226 ft 312 kts 54°
2026-04-28 04:47 9.18468 -79.56787 10758 ft 306 kts 54°
2026-04-28 04:47 9.19703 -79.55046 10291 ft 301 kts 54°
2026-04-28 04:47 9.20915 -79.53338 9868 ft 295 kts 54°
2026-04-28 04:47 9.22075 -79.51704 9498 ft 288 kts 54°
2026-04-28 04:48 9.23225 -79.50037 8996 ft 286 kts 58°
2026-04-28 04:48 9.24110 -79.48267 8650 ft 278 kts 65°
2026-04-28 04:48 9.24861 -79.46498 8345 ft 269 kts 66°
2026-04-28 04:48 9.25579 -79.44780 8060 ft 261 kts 66°
2026-04-28 04:49 9.26283 -79.43121 7789 ft 253 kts 66°
2026-04-28 04:49 9.26974 -79.41513 7530 ft 245 kts 65°
2026-04-28 04:49 9.27650 -79.39960 7314 ft 235 kts 65°
2026-04-28 04:49 9.28295 -79.38486 7082 ft 223 kts 65°
2026-04-28 04:50 9.28909 -79.37090 6849 ft 211 kts 65°
2026-04-28 04:50 9.29496 -79.35761 6634 ft 203 kts 65°
2026-04-28 04:50 9.30062 -79.34479 6433 ft 196 kts 65°
2026-04-28 04:50 9.30611 -79.33237 6214 ft 190 kts 65°
2026-04-28 04:51 9.31136 -79.32051 6020 ft 184 kts 65°
2026-04-28 04:51 9.31651 -79.30889 5827 ft 178 kts 65°
2026-04-28 04:51 9.32150 -79.29760 5665 ft 174 kts 65°
2026-04-28 04:51 9.32645 -79.28642 5511 ft 176 kts 65°
2026-04-28 04:52 9.33087 -79.27481 5310 ft 178 kts 80°
2026-04-28 04:52 9.32804 -79.26304 5124 ft 177 kts 128°
2026-04-28 04:52 9.31770 -79.25645 5004 ft 178 kts 159°
2026-04-28 04:52 9.30573 -79.25224 4804 ft 184 kts 169°
2026-04-28 04:53 9.29361 -79.25432 4639 ft 182 kts 214°
2026-04-28 04:53 9.28405 -79.26267 4409 ft 183 kts 217°
2026-04-28 04:53 9.27248 -79.26755 4204 ft 180 kts 192°
2026-04-28 04:53 9.26083 -79.27218 3918 ft 180 kts 219°
2026-04-28 04:54 9.25227 -79.28100 3721 ft 178 kts 223°
2026-04-28 04:54 9.24132 -79.28657 3514 ft 175 kts 193°
2026-04-28 04:54 9.22991 -79.29090 3247 ft 179 kts 217°
2026-04-28 04:54 9.22112 -79.29961 3030 ft 176 kts 222°
2026-04-28 04:55 9.21034 -79.30520 2828 ft 175 kts 194°
2026-04-28 04:55 9.19881 -79.30965 2522 ft 181 kts 208°
2026-04-28 04:55 9.18822 -79.31647 2272 ft 179 kts 214°
2026-04-28 04:55 9.17826 -79.32378 2067 ft 173 kts 215°
2026-04-28 04:56 9.16838 -79.33012 1864 ft 170 kts 209°
2026-04-28 04:56 9.15829 -79.33606 1673 ft 163 kts 210°
2026-04-28 04:56 9.14890 -79.34168 1437 ft 152 kts 210°
2026-04-28 04:56 9.14004 -79.34698 1304 ft 143 kts 210°
2026-04-28 04:57 9.13154 -79.35207 1073 ft 143 kts 211°
2026-04-28 04:57 9.12308 -79.35715 881 ft 142 kts 212°
2026-04-28 04:57 9.11469 -79.36223 692 ft 138 kts 212°
2026-04-28 04:57 9.10632 -79.36731 463 ft 141 kts 211°
2026-04-28 04:58 9.09794 -79.37227 219 ft 142 kts 210°
2026-04-28 04:58 9.08949 -79.37730 52 ft 134 kts 211°
2026-04-28 04:58 9.08265 -79.38138 45 ft 85 kts 211°
2026-04-28 04:58 9.07915 -79.38350 47 ft 47 kts 211°
2026-04-28 04:59 9.07645 -79.38512 48 ft 43 kts 210°
2026-04-28 04:59 9.07469 -79.38617 48 ft 25 kts 211°
2026-04-28 04:59 9.07381 -79.38624 45 ft 13 kts 129°
2026-04-28 04:59 9.07318 -79.38523 33 ft 20 kts 118°
2026-04-28 05:00 9.07254 -79.38411 30 ft 14 kts 120°
2026-04-28 05:00 9.07204 -79.38325 29 ft 14 kts 121°
2026-04-28 05:00 9.07157 -79.38241 29 ft 13 kts 118°
2026-04-28 05:00 9.07115 -79.38160 29 ft 13 kts 121°
2026-04-28 05:01 9.07035 -79.38156 29 ft 13 kts 205°
2026-04-28 05:01 9.06958 -79.38197 29 ft 12 kts 208°
2026-04-28 05:01 9.06883 -79.38238 29 ft 12 kts 208°
2026-04-28 05:01 9.06810 -79.38277 29 ft 12 kts 208°
2026-04-28 05:02 9.06740 -79.38314 29 ft 11 kts 208°
2026-04-28 05:02 9.06671 -79.38351 29 ft 11 kts 207°
2026-04-28 05:02 9.06600 -79.38388 29 ft 12 kts 208°
2026-04-28 05:02 9.06521 -79.38434 29 ft 14 kts 211°
2026-04-28 05:03 9.06430 -79.38486 29 ft 16 kts 210°
2026-04-28 05:03 9.06329 -79.38546 29 ft 18 kts 210°
2026-04-28 05:03 9.06245 -79.38603 29 ft 6 kts 249°
2026-04-28 05:03 9.06275 -79.38623 29 ft 6 kts 354°
2026-04-28 05:04 9.06323 -79.38630 29 ft 8 kts 333°
2026-04-28 05:04 9.06362 -79.38677 29 ft 9 kts 302°
2026-04-28 05:04 9.06390 -79.38742 29 ft 11 kts 276°
2026-04-28 05:04 9.06340 -79.38789 29 ft 11 kts 188°
2026-04-28 05:05 9.06255 -79.38795 29 ft 13 kts 184°
2026-04-28 05:05 9.06171 -79.38824 29 ft 13 kts 214°
2026-04-28 05:05 9.06135 -79.38894 29 ft 12 kts 299°
2026-04-28 05:05 9.06163 -79.38918 29 ft 0 kts 330°
2026-04-28 05:06 9.06174 -79.38926 29 ft 4 kts 327°
2026-04-28 05:06 9.06181 -79.38931 29 ft 0 kts 329°